Weather History for Sisseton, SD

Change the Weather History Date:

Monday, July 22, 2013

  Actual Average Record
Temperature  
Mean Temperature 67 °F 72 °F  
Max Temperature 76 °F 84 °F 112 °F (1934)
Min Temperature 57 °F 60 °F 45 °F (1947)
Degree Days  
Heating Degree Days 0 0  
Month to date heating degree days 0 3  
Since 1 June heating degree days 69 65  
Since 1 July heating degree days 0 3  
Cooling Degree Days 2 7  
Month to date cooling degree days 195 143  
Year to date cooling degree days 337 260  
Since 1 June cooling degree days 312 237  
Growing Degree Days 17 (Base 50)    
Moisture  
Dew Point 62 °F    
Average Humidity 79    
Maximum Humidity 100    
Minimum Humidity 57    
Precipitation  
Precipitation 0.19 in 0.12 in 1.06 in (1991)
Month to date precipitation 2.51 2.65  
Year to date precipitation 17.43 13.37  
Sea Level Pressure  
Sea Level Pressure 29.75 in    
Wind  
Wind Speed 10 mph (NNW)    
Max Wind Speed 21 mph    
Max Gust Speed 25 mph    
T = Trace of Precipitation, MM = Missing Value Source: NWS Daily Summary

Daily Weather History Graph

Daily Weather History Graph

Search for Another Location

Airport:

Trip Planner

Search our weather history database for the weather conditions in past years. The results will help you decide how hot, cold, wet, or windy it might be!

Date:

Astronomy

Jul. 22, 2013 Rise Set
Actual Time 6:00 AM CDT 9:07 PM CDT
Civil Twilight 5:24 AM CDT 9:43 PM CDT
Nautical Twilight 4:38 AM CDT 10:29 PM CDT
Astronomical Twilight 3:42 AM CDT 11:24 PM CDT
Moon 8:49 PM CDT (7/22) 6:01 AM CDT (7/22)
Length of Visible Light 16h 18m
Length of Day
15h 07m
Full, 100% of the Moon is Illuminated
Jul 22
Full
Jul 22
Full
Jul 29
Last Quarter
Aug 6
New
Aug 14
First Quarter

Hourly Weather History & Observations

Time (CDT) Temp. Dew Point Humidity Pressure Visibility Wind Dir Wind Speed Gust Speed Precip Events Conditions
12:56 AM 73.0 °F 66.0 °F 79% 29.62 in - SW 9.2 mph - N/A   Unknown
1:56 AM 75.0 °F 66.9 °F 76% 29.62 in - SSW 9.2 mph - N/A   Unknown
2:56 AM 72.0 °F 68.0 °F 87% 29.62 in - Variable 3.5 mph - 0.02 in   Unknown
3:56 AM 70.0 °F 68.0 °F 93% 29.65 in - ENE 4.6 mph - 0.16 in   Unknown
4:56 AM 66.9 °F 66.0 °F 97% 29.62 in - SSW 6.9 mph - 0.01 in   Unknown
5:56 AM 66.9 °F 66.0 °F 97% 29.64 in - NNW 3.5 mph - N/A   Unknown
6:56 AM 69.1 °F 66.9 °F 93% 29.66 in - NNW 8.1 mph - N/A   Unknown
7:56 AM 70.0 °F 66.0 °F 87% 29.67 in - NNW 9.2 mph - N/A   Unknown
8:56 AM 71.1 °F 63.0 °F 75% 29.70 in - North 16.1 mph 20.7 mph N/A   Unknown
9:56 AM 72.0 °F 64.0 °F 76% 29.72 in - North 13.8 mph 19.6 mph N/A   Unknown
10:56 AM 73.0 °F 63.0 °F 71% 29.74 in - North 13.8 mph 19.6 mph N/A   Unknown
11:56 AM 73.9 °F 62.1 °F 66% 29.75 in - North 11.5 mph - N/A   Unknown
12:56 PM 73.0 °F 62.1 °F 68% 29.77 in - North 12.7 mph 21.9 mph N/A   Unknown
1:56 PM 73.9 °F 62.1 °F 66% 29.77 in - North 12.7 mph 19.6 mph N/A   Unknown
2:56 PM 75.0 °F 61.0 °F 62% 29.78 in - North 17.3 mph 23.0 mph N/A   Unknown
3:56 PM 73.9 °F 59.0 °F 59% 29.80 in - North 17.3 mph 23.0 mph N/A   Unknown
4:56 PM 72.0 °F 57.0 °F 59% 29.81 in - North 16.1 mph 25.3 mph N/A   Unknown
5:56 PM 73.9 °F 57.0 °F 55% 29.80 in - North 13.8 mph 21.9 mph N/A   Unknown
6:56 PM 71.1 °F 55.9 °F 59% 29.82 in - North 12.7 mph - N/A   Unknown
7:56 PM 70.0 °F 55.0 °F 59% 29.83 in - North 12.7 mph 18.4 mph N/A   Unknown
8:56 PM 64.9 °F 57.9 °F 78% 29.83 in - North 6.9 mph - N/A   Unknown
9:56 PM 60.1 °F 57.0 °F 90% 29.87 in - NNW 5.8 mph - N/A   Unknown
10:56 PM 59.0 °F 57.0 °F 93% 29.90 in - NNW 4.6 mph - N/A   Unknown
11:56 PM 57.0 °F 55.9 °F 96% 29.91 in - North 4.6 mph - N/A   Unknown